Location: Azul
(36.7830°S, 59.8500°W)
Time: 19:13:40
(UTC-03:00)

ZACube-1 - Pass Details

Date: 31 October 2021
Orbit: 584 x 664 km, 97.6° (Epoch: 07 December)

Event Time Altitude Azimuth Distance (km) Brightness Sun altitude
Rises 04:17:17 0° 25° (NNE) 2,942 ? -18.3°
Reaches altitude 10° 04:19:30 10° 30° (NNE) 2,052 ? -17.9°
Maximum altitude 04:23:52 53° 106° (ESE) 816 ? -17.2°
Drops below altitude 10° 04:28:22 10° 182° (S) 2,112 ? -16.5°
Sets 04:30:40 0° 186° (S) 3,037 ? -16.1°
